| time (UTC) | temp F | wind direction | speed MPH | gust MPH | rain 1hr in | rain 24hr in | rain mn in | humidity % | barometer mb |
| 20260831210549 | 76 | 170 | 5.0 | 6.0 | 0.00 | 0.65 | 0.65 | 98 | 1012.8 |
| 20260831210045 | 77 | 243 | 1.0 | 2.0 | 0.00 | 0.65 | 0.65 | 98 | 1012.5 |
| 20260831205539 | 76 | 225 | 1.0 | 3.0 | 0.00 | 0.65 | 0.65 | 98 | 1012.2 |
| 20260831205035 | 77 | 163 | 2.0 | 2.0 | 0.12 | 0.65 | 0.65 | 98 | 1011.8 |
| 20260831204530 | 76 | 159 | 0.0 | 0.0 | 0.17 | 0.65 | 0.65 | 98 | 1012.2 |
| 20260831204028 | 75 | 151 | 2.0 | 2.0 | 0.12 | 0.64 | 0.64 | 99 | 1012.3 |
| 20260831203528 | 75 | 199 | 4.0 | 6.0 | 0.42 | 0.62 | 0.62 | 98 | 1012.8 |
| 20260831203028 | 75 | 219 | 3.0 | 3.0 | 0.97 | 0.62 | 0.62 | 98 | 1012.4 |
| 20260831202521 | 75 | 158 | 6.0 | 8.0 | 1.21 | 0.56 | 0.56 | 98 | 1012.5 |
| 20260831202021 | 75 | 195 | 4.0 | 6.0 | 0.90 | 0.48 | 0.48 | 98 | 1012.9 |
| 20260831201520 | 76 | 240 | 1.0 | 2.0 | 0.19 | 0.36 | 0.36 | 96 | 1014.4 |
| 20260831201016 | 76 | 218 | 1.0 | 2.0 | 0.05 | 0.33 | 0.33 | 96 | 1014.3 |
| 20260831200511 | 76 | 201 | 1.0 | 1.0 | 0.05 | 0.33 | 0.33 | 96 | 1013.9 |
| 20260831200006 | 76 | 246 | 1.0 | 1.0 | 0.00 | 0.32 | 0.32 | 95 | 1014.4 |
| 20260831195502 | 77 | 253 | 1.0 | 1.0 | 0.00 | 0.32 | 0.32 | 95 | 1013.8 |
| 20260831195001 | 77 | 256 | 0.0 | 0.0 | 0.00 | 0.32 | 0.32 | 94 | 1013.5 |
| 20260831194457 | 77 | 282 | 1.0 | 2.0 | 0.00 | 0.32 | 0.32 | 93 | 1013.3 |
| 20260831193956 | 78 | 258 | 0.0 | 1.0 | 0.14 | 0.32 | 0.32 | 91 | 1013.2 |
| 20260831193452 | 79 | 215 | 1.0 | 2.0 | 0.14 | 0.32 | 0.32 | 88 | 1013.3 |
| 20260831192947 | 80 | 141 | 1.0 | 1.0 | 0.00 | 0.30 | 0.30 | 82 | 1013.0 |
| 20260831192442 | 80 | 165 | 2.0 | 2.0 | 0.00 | 0.30 | 0.30 | 80 | 1013.1 |
| 20260831191937 | 81 | 202 | 3.0 | 3.0 | 0.00 | 0.30 | 0.30 | 79 | 1013.3 |
| 20260831191433 | 81 | 195 | 6.0 | 7.0 | 0.00 | 0.30 | 0.30 | 77 | 1013.2 |
| 20260831190929 | 81 | 235 | 1.0 | 2.0 | 0.00 | 0.30 | 0.30 | 77 | 1013.4 |
| 20260831190424 | 81 | 222 | 0.0 | 1.0 | 0.00 | 0.30 | 0.30 | 77 | 1013.5 |
| 20260831185923 | 81 | 210 | 2.0 | 3.0 | 0.00 | 0.30 | 0.30 | 76 | 1013.5 |
| 20260831185419 | 82 | 197 | 2.0 | 2.0 | 0.00 | 0.30 | 0.30 | 74 | 1013.5 |
| 20260831184918 | 82 | 217 | 2.0 | 2.0 | 0.00 | 0.30 | 0.30 | 74 | 1013.6 |
| 20260831184413 | 83 | 121 | 4.0 | 7.0 | 0.00 | 0.30 | 0.30 | 73 | 1013.7 |
| 20260831183909 | 84 | 213 | 2.0 | 3.0 | 0.00 | 0.30 | 0.30 | 71 | 1013.4 |
| 20260831183408 | 84 | 200 | 2.0 | 3.0 | 0.00 | 0.30 | 0.30 | 71 | 1013.4 |
| 20260831182907 | 84 | 203 | 3.0 | 5.0 | 0.00 | 0.30 | 0.30 | 71 | 1013.5 |
| 20260831182403 | 84 | 243 | 2.0 | 3.0 | 0.00 | 0.30 | 0.30 | 71 | 1013.4 |
| 20260831181858 | 84 | 224 | 3.0 | 3.0 | 0.00 | 0.30 | 0.30 | 70 | 1013.3 |
| 20260831181353 | 85 | 189 | 3.0 | 7.0 | 0.00 | 0.30 | 0.30 | 69 | 1013.0 |
| 20260831180848 | 86 | 237 | 4.0 | 5.0 | 0.00 | 0.30 | 0.30 | 67 | 1013.1 |
| 20260831180342 | 86 | 198 | 3.0 | 8.0 | 0.00 | 0.30 | 0.30 | 69 | 1013.5 |
| 20260831175841 | 85 | 224 | 2.0 | 3.0 | 0.00 | 0.30 | 0.30 | 69 | 1013.4 |
| 20260831175338 | 85 | 201 | 2.0 | 2.0 | 0.00 | 0.30 | 0.30 | 70 | 1013.2 |
| 20260831174835 | 84 | 58 | 3.0 | 6.0 | 0.00 | 0.30 | 0.30 | 70 | 1013.3 |
| 20260831174330 | 84 | 227 | 4.0 | 7.0 | 0.00 | 0.30 | 0.30 | 70 | 1013.5 |
| 20260831173829 | 84 | 149 | 3.0 | 6.0 | 0.00 | 0.30 | 0.30 | 71 | 1013.4 |
| 20260831173328 | 84 | 229 | 1.0 | 2.0 | 0.00 | 0.30 | 0.30 | 72 | 1013.6 |
| 20260831172823 | 84 | 227 | 1.0 | 2.0 | 0.00 | 0.30 | 0.30 | 72 | 1013.7 |
| 20260831172319 | 83 | 169 | 3.0 | 8.0 | 0.00 | 0.30 | 0.30 | 71 | 1013.8 |
| 20260831171819 | 83 | 181 | 5.0 | 7.0 | 0.00 | 0.30 | 0.30 | 70 | 1013.9 |
| 20260831171315 | 83 | 188 | 0.0 | 1.0 | 0.00 | 0.30 | 0.30 | 73 | 1013.6 |
| 20260831170812 | 83 | 218 | 4.0 | 6.0 | 0.00 | 0.30 | 0.30 | 72 | 1014.0 |
| 20260831170308 | 83 | 236 | 3.0 | 6.0 | 0.00 | 0.30 | 0.30 | 72 | 1014.3 |
| 20260831165804 | 83 | 218 | 0.0 | 1.0 | 0.00 | 0.30 | 0.30 | 72 | 1014.0 |
| 20260831165300 | 82 | 111 | 5.0 | 8.0 | 0.00 | 0.30 | 0.30 | 70 | 1014.1 |
| 20260831164756 | 82 | 203 | 3.0 | 3.0 | 0.00 | 0.30 | 0.30 | 73 | 1014.0 |
| 20260831164252 | 82 | 205 | 4.0 | 8.0 | 0.00 | 0.30 | 0.30 | 73 | 1014.2 |
| 20260831163747 | 81 | 196 | 2.0 | 2.0 | 0.00 | 0.30 | 0.30 | 77 | 1014.5 |
| 20260831163243 | 80 | 126 | 2.0 | 2.0 | 0.00 | 0.30 | 0.30 | 76 | 1014.4 |
| 20260831162741 | 80 | 231 | 4.0 | 7.0 | 0.00 | 0.30 | 0.30 | 76 | 1014.5 |
| 20260831162236 | 79 | 74 | 1.0 | 2.0 | 0.00 | 0.30 | 0.30 | 79 | 1014.3 |
| 20260831161730 | 79 | 128 | 3.0 | 6.0 | 0.00 | 0.30 | 0.30 | 79 | 1014.4 |
| 20260831161227 | 79 | 203 | 1.0 | 2.0 | 0.00 | 0.30 | 0.30 | 81 | 1014.4 |
| 20260831160726 | 79 | 219 | 3.0 | 3.0 | 0.00 | 0.30 | 0.30 | 80 | 1014.3 |
| 20260831160221 | 78 | 105 | 4.0 | 7.0 | 0.00 | 0.30 | 0.30 | 80 | 1014.3 |
| 20260831155721 | 78 | 197 | 4.0 | 7.0 | 0.00 | 0.30 | 0.30 | 82 | 1014.6 |
| 20260831155216 | 76 | 189 | 2.0 | 2.0 | 0.00 | 0.30 | 0.30 | 85 | 1014.6 |
| 20260831154712 | 75 | 187 | 6.0 | 8.0 | 0.00 | 0.30 | 0.30 | 85 | 1014.4 |
| 20260831154209 | 76 | 142 | 2.0 | 5.0 | 0.00 | 0.30 | 0.30 | 84 | 1014.5 |
| 20260831153707 | 76 | 165 | 4.0 | 6.0 | 0.00 | 0.30 | 0.30 | 86 | 1014.3 |
| 20260831153203 | 75 | 132 | 2.0 | 3.0 | 0.00 | 0.30 | 0.30 | 87 | 1014.5 |
| 20260831152659 | 75 | 149 | 2.0 | 3.0 | 0.00 | 0.30 | 0.30 | 89 | 1014.4 |
| 20260831152155 | 74 | 219 | 1.0 | 2.0 | 0.00 | 0.30 | 0.30 | 90 | 1014.7 |
| 20260831151654 | 74 | 218 | 5.0 | 7.0 | 0.00 | 0.30 | 0.30 | 91 | 1014.5 |
| 20260831151148 | 73 | 188 | 3.0 | 6.0 | 0.00 | 0.30 | 0.30 | 91 | 1014.8 |
| 20260831150644 | 73 | 133 | 2.0 | 3.0 | 0.00 | 0.30 | 0.30 | 92 | 1014.6 |
| 20260831150139 | 73 | 188 | 3.0 | 3.0 | 0.00 | 0.30 | 0.30 | 93 | 1014.6 |
| 20260831145638 | 73 | 224 | 1.0 | 1.0 | 0.00 | 0.30 | 0.30 | 93 | 1014.7 |
| 20260831145135 | 73 | 205 | 3.0 | 3.0 | 0.00 | 0.30 | 0.30 | 94 | 1014.7 |
| 20260831144631 | 73 | 158 | 1.0 | 1.0 | 0.00 | 0.30 | 0.30 | 94 | 1014.6 |
| 20260831144126 | 73 | 186 | 2.0 | 2.0 | 0.00 | 0.30 | 0.30 | 94 | 1014.7 |
| 20260831143625 | 72 | 102 | 2.0 | 3.0 | 0.00 | 0.30 | 0.30 | 94 | 1014.8 |
| 20260831143121 | 72 | 183 | 0.0 | 1.0 | 0.00 | 0.30 | 0.30 | 94 | 1014.8 |
| 20260831142618 | 72 | 160 | 1.0 | 2.0 | 0.00 | 0.30 | 0.30 | 94 | 1014.7 |
| 20260831142113 | 72 | 186 | 4.0 | 6.0 | 0.00 | 0.30 | 0.30 | 94 | 1014.5 |
| 20260831141611 | 72 | 186 | 3.0 | 5.0 | 0.00 | 0.30 | 0.30 | 94 | 1014.8 |
| 20260831141107 | 72 | 120 | 2.0 | 5.0 | 0.00 | 0.30 | 0.30 | 94 | 1014.7 |
| 20260831140601 | 72 | 206 | 1.0 | 2.0 | 0.00 | 0.30 | 0.30 | 94 | 1014.7 |
| 20260831140055 | 72 | 158 | 2.0 | 2.0 | 0.00 | 0.30 | 0.30 | 95 | 1014.5 |
| 20260831135552 | 72 | 216 | 3.0 | 3.0 | 0.00 | 0.30 | 0.30 | 95 | 1014.6 |
| 20260831135048 | 71 | 145 | 3.0 | 5.0 | 0.00 | 0.30 | 0.30 | 96 | 1014.7 |
| 20260831134544 | 70 | 149 | 2.0 | 5.0 | 0.00 | 0.30 | 0.30 | 97 | 1014.6 |
| 20260831134038 | 70 | 162 | 2.0 | 2.0 | 0.00 | 0.30 | 0.30 | 97 | 1014.9 |
| 20260831133538 | 70 | 167 | 4.0 | 6.0 | 0.00 | 0.30 | 0.30 | 98 | 1014.6 |
| 20260831133033 | 70 | 181 | 2.0 | 3.0 | 0.00 | 0.30 | 0.30 | 98 | 1015.0 |
| 20260831132530 | 69 | 185 | 0.0 | 1.0 | 0.00 | 0.30 | 0.30 | 98 | 1015.0 |
| 20260831132029 | 69 | 131 | 1.0 | 2.0 | 0.00 | 0.30 | 0.30 | 98 | 1015.1 |
| 20260831131528 | 70 | 152 | 3.0 | 3.0 | 0.00 | 0.30 | 0.30 | 98 | 1015.1 |
| 20260831131025 | 70 | 177 | 0.0 | 0.0 | 0.00 | 0.30 | 0.30 | 98 | 1015.4 |
| 20260831130520 | 69 | 153 | 2.0 | 3.0 | 0.00 | 0.30 | 0.30 | 98 | 1015.0 |
| 20260831130016 | 69 | 235 | 0.0 | 0.0 | 0.00 | 0.30 | 0.30 | 99 | 1015.1 |
| 20260831125514 | 69 | 148 | 2.0 | 2.0 | 0.00 | 0.30 | 0.30 | 99 | 1015.3 |
| 20260831125010 | 69 | 208 | 0.0 | 0.0 | 0.05 | 0.30 | 0.30 | 99 | 1015.0 |
| 20260831124507 | 69 | 165 | 2.0 | 3.0 | 0.12 | 0.30 | 0.30 | 99 | 1014.8 |
| 20260831124002 | 69 | 137 | 2.0 | 3.0 | 0.31 | 0.29 | 0.29 | 99 | 1014.8 |
| 20260831123500 | 69 | 183 | 0.0 | 0.0 | 0.24 | 0.28 | 0.28 | 99 | 1014.8 |
| 20260831122955 | 69 | 252 | 0.0 | 1.0 | 0.00 | 0.24 | 0.24 | 99 | 1015.0 |
| 20260831122451 | 69 | 196 | 0.0 | 0.0 | 0.00 | 0.24 | 0.24 | 99 | 1014.8 |
| 20260831121946 | 69 | 209 | 0.0 | 0.0 | 0.00 | 0.24 | 0.24 | 99 | 1014.6 |
| 20260831121441 | 69 | 178 | 0.0 | 0.0 | 0.00 | 0.24 | 0.24 | 99 | 1014.5 |
| 20260831120937 | 69 | 208 | 0.0 | 0.0 | 0.05 | 0.24 | 0.24 | 99 | 1014.5 |
| 20260831120431 | 69 | 170 | 1.0 | 1.0 | 0.05 | 0.24 | 0.24 | 99 | 1014.5 |
| 20260831115931 | 69 | 204 | 1.0 | 1.0 | 0.00 | 0.23 | 0.23 | 99 | 1014.5 |
| 20260831115428 | 68 | 204 | 0.0 | 1.0 | 0.00 | 0.23 | 0.23 | 99 | 1014.7 |
| 20260831114927 | 68 | 200 | 0.0 | 1.0 | 0.12 | 0.23 | 0.23 | 99 | 1014.5 |
| 20260831114426 | 69 | 144 | 1.0 | 1.0 | 0.12 | 0.23 | 0.23 | 98 | 1015.0 |
| 20260831113922 | 69 | 167 | 0.0 | 1.0 | 0.12 | 0.21 | 0.21 | 98 | 1014.9 |
| 20260831113416 | 69 | 269 | 0.0 | 0.0 | 0.42 | 0.21 | 0.21 | 97 | 1014.8 |
| 20260831112911 | 69 | 304 | 0.0 | 0.0 | 0.42 | 0.19 | 0.19 | 97 | 1014.8 |
| 20260831112411 | 70 | 299 | 0.0 | 0.0 | 0.54 | 0.14 | 0.14 | 96 | 1015.1 |
| 20260831111906 | 70 | 134 | 0.0 | 1.0 | 0.42 | 0.12 | 0.12 | 94 | 1015.2 |
| 20260831111402 | 71 | 244 | 1.0 | 1.0 | 0.31 | 0.05 | 0.05 | 91 | 1015.1 |
| 20260831110858 | 72 | 146 | 1.0 | 2.0 | 0.31 | 0.05 | 0.05 | 90 | 1015.0 |
| 20260831110353 | 73 | 241 | 0.0 | 0.0 | 0.07 | 0.01 | 0.01 | 87 | 1015.1 |
| 20260831105851 | 73 | 260 | 0.0 | 0.0 | 0.00 | 0.00 | 0.00 | 86 | 1014.6 |
| 20260831105347 | 73 | 302 | 3.0 | 5.0 | 0.00 | 0.00 | 0.00 | 84 | 1014.5 |
| 20260831104842 | 73 | 273 | 0.0 | 0.0 | 0.00 | 0.00 | 0.00 | 85 | 1014.6 |
| 20260831104338 | 73 | 265 | 0.0 | 1.0 | 0.00 | 0.00 | 0.00 | 84 | 1014.0 |
| 20260831103838 | 73 | 199 | 0.0 | 0.0 | 0.00 | 0.00 | 0.00 | 83 | 1014.0 |
| 20260831103334 | 73 | 205 | 0.0 | 0.0 | 0.00 | 0.00 | 0.00 | 83 | 1013.7 |
| 20260831102828 | 73 | 170 | 1.0 | 1.0 | 0.00 | 0.00 | 0.00 | 83 | 1013.7 |
| 20260831102323 | 73 | 188 | 1.0 | 1.0 | 0.00 | 0.00 | 0.00 | 83 | 1013.7 |
| 20260831101819 | 73 | 206 | 1.0 | 2.0 | 0.00 | 0.00 | 0.00 | 83 | 1013.9 |
| 20260831101314 | 73 | 214 | 1.0 | 1.0 | 0.00 | 0.00 | 0.00 | 84 | 1013.6 |
| 20260831100810 | 73 | 213 | 0.0 | 0.0 | 0.00 | 0.00 | 0.00 | 85 | 1013.6 |
| 20260831100306 | 73 | 256 | 2.0 | 2.0 | 0.00 | 0.00 | 0.00 | 85 | 1013.7 |
| 20260831095805 | 73 | 193 | 1.0 | 1.0 | 0.00 | 0.00 | 0.00 | 85 | 1013.9 |
| 20260831095254 | 73 | 164 | 0.0 | 1.0 | 0.00 | 0.00 | 0.00 | 85 | 1013.6 |
| 20260831094749 | 73 | 236 | 1.0 | 2.0 | 0.00 | 0.00 | 0.00 | 86 | 1013.8 |
| 20260831094244 | 72 | 173 | 2.0 | 3.0 | 0.00 | 0.00 | 0.00 | 87 | 1013.8 |
| 20260831093740 | 72 | 188 | 3.0 | 3.0 | 0.00 | 0.00 | 0.00 | 88 | 1013.7 |
| 20260831093235 | 72 | 178 | 2.0 | 2.0 | 0.00 | 0.00 | 0.00 | 90 | 1013.7 |
| 20260831092732 | 71 | 167 | 2.0 | 2.0 | 0.00 | 0.00 | 0.00 | 92 | 1013.6 |
| 20260831092227 | 71 | 244 | 1.0 | 2.0 | 0.00 | 0.00 | 0.00 | 93 | 1013.7 |
| 20260831091726 | 71 | 215 | 0.0 | 1.0 | 0.00 | 0.00 | 0.00 | 94 | 1013.6 |
| 20260831091222 | 71 | 208 | 1.0 | 1.0 | 0.00 | 0.00 | 0.00 | 94 | 1013.7 |
| 20260831090717 | 71 | 187 | 1.0 | 1.0 | 0.00 | 0.00 | 0.00 | 94 | 1013.8 |
| 20260831090214 | 71 | 187 | 0.0 | 0.0 | 0.00 | 0.00 | 0.00 | 95 | 1013.8 |
| 20260831085708 | 71 | 186 | 2.0 | 3.0 | 0.00 | 0.00 | 0.00 | 95 | 1013.7 |
| 20260831085203 | 71 | 195 | 1.0 | 2.0 | 0.00 | 0.00 | 0.00 | 96 | 1013.9 |
| 20260831084658 | 71 | 187 | 1.0 | 1.0 | 0.00 | 0.00 | 0.00 | 96 | 1013.8 |
| 20260831084155 | 71 | 207 | 0.0 | 0.0 | 0.00 | 0.00 | 0.00 | 96 | 1014.0 |
| 20260831083651 | 71 | 196 | 0.0 | 1.0 | 0.00 | 0.00 | 0.00 | 96 | 1013.7 |
| 20260831083146 | 71 | 204 | 0.0 | 0.0 | 0.00 | 0.00 | 0.00 | 96 | 1013.8 |
| 20260831082644 | 71 | 204 | 0.0 | 0.0 | 0.00 | 0.00 | 0.00 | 96 | 1013.9 |
| 20260831082140 | 71 | 204 | 0.0 | 0.0 | 0.00 | 0.00 | 0.00 | 96 | 1014.0 |
| 20260831081636 | 71 | 203 | 0.0 | 0.0 | 0.00 | 0.00 | 0.00 | 96 | 1014.0 |
| 20260831081131 | 71 | 204 | 0.0 | 0.0 | 0.00 | 0.00 | 0.00 | 96 | 1014.0 |
| 20260831080627 | 71 | 204 | 0.0 | 0.0 | 0.00 | 0.00 | 0.00 | 97 | 1013.9 |
| 20260831080121 | 71 | 205 | 0.0 | 0.0 | 0.00 | 0.00 | 0.00 | 97 | 1013.9 |
| 20260831075617 | 71 | 205 | 0.0 | 0.0 | 0.00 | 0.00 | 0.00 | 97 | 1013.9 |
| 20260831075112 | 71 | 205 | 0.0 | 0.0 | 0.00 | 0.00 | 0.00 | 97 | 1014.0 |
| 20260831074612 | 71 | 205 | 0.0 | 0.0 | 0.00 | 0.00 | 0.00 | 97 | 1014.2 |
| 20260831074107 | 71 | 205 | 0.0 | 0.0 | 0.00 | 0.00 | 0.00 | 97 | 1014.5 |
| 20260831073602 | 71 | 205 | 0.0 | 0.0 | 0.00 | 0.00 | 0.00 | 97 | 1014.5 |
| 20260831073101 | 72 | 205 | 0.0 | 0.0 | 0.00 | 0.00 | 0.00 | 97 | 1014.2 |
| 20260831072556 | 72 | 210 | 0.0 | 0.0 | 0.00 | 0.00 | 0.00 | 97 | 1014.4 |
| 20260831072053 | 72 | 202 | 1.0 | 1.0 | 0.00 | 0.00 | 0.00 | 97 | 1014.6 |
| 20260831071550 | 72 | 200 | 0.0 | 0.0 | 0.00 | 0.00 | 0.00 | 97 | 1014.3 |
| 20260831071046 | 72 | 198 | 0.0 | 0.0 | 0.00 | 0.00 | 0.00 | 97 | 1014.6 |
| 20260831070545 | 72 | 197 | 0.0 | 0.0 | 0.00 | 0.00 | 0.00 | 97 | 1014.4 |
| 20260831070040 | 72 | 197 | 0.0 | 0.0 | 0.00 | 0.00 | 0.00 | 97 | 1014.6 |
| 20260831065538 | 72 | 196 | 0.0 | 0.0 | 0.00 | 0.00 | 0.00 | 97 | 1014.7 |
| 20260831065038 | 72 | 193 | 0.0 | 1.0 | 0.00 | 0.00 | 0.00 | 97 | 1014.6 |
| 20260831064533 | 72 | 212 | 0.0 | 1.0 | 0.00 | 0.00 | 0.00 | 97 | 1014.7 |
| 20260831064029 | 72 | 195 | 0.0 | 0.0 | 0.00 | 0.00 | 0.00 | 97 | 1014.4 |
| 20260831063526 | 72 | 170 | 0.0 | 0.0 | 0.00 | 0.00 | 0.00 | 97 | 1014.6 |
| 20260831063025 | 73 | 188 | 0.0 | 0.0 | 0.00 | 0.00 | 0.00 | 96 | 1014.6 |
| 20260831062520 | 73 | 209 | 0.0 | 1.0 | 0.00 | 0.00 | 0.00 | 96 | 1014.4 |
| 20260831062020 | 73 | 210 | 0.0 | 0.0 | 0.00 | 0.00 | 0.00 | 96 | 1014.5 |
| 20260831061517 | 73 | 199 | 0.0 | 1.0 | 0.00 | 0.00 | 0.00 | 96 | 1014.6 |
| 20260831061014 | 73 | 212 | 0.0 | 0.0 | 0.00 | 0.00 | 0.00 | 96 | 1014.7 |
| 20260831060514 | 73 | 200 | 1.0 | 2.0 | 0.00 | 0.00 | 0.00 | 96 | 1014.4 |
| 20260831060009 | 73 | 195 | 0.0 | 1.0 | 0.00 | 0.00 | 0.00 | 97 | 1014.3 |
| 20260831055503 | 73 | 169 | 2.0 | 3.0 | 0.00 | 0.00 | 0.00 | 97 | 1014.5 |
| 20260831054959 | 73 | 151 | 0.0 | 0.0 | 0.00 | 0.00 | 0.00 | 97 | 1014.5 |
| 20260831054453 | 73 | 162 | 0.0 | 0.0 | 0.00 | 0.00 | 0.00 | 97 | 1014.6 |
| 20260831053953 | 73 | 143 | 0.0 | 0.0 | 0.00 | 0.00 | 0.00 | 97 | 1014.5 |
| 20260831053451 | 73 | 142 | 2.0 | 2.0 | 0.00 | 0.00 | 0.00 | 98 | 1014.6 |
| 20260831052946 | 73 | 170 | 1.0 | 1.0 | 0.00 | 0.00 | 0.00 | 98 | 1014.7 |
| 20260831052445 | 73 | 166 | 0.0 | 0.0 | 0.00 | 0.00 | 0.00 | 98 | 1014.5 |
| 20260831051944 | 73 | 220 | 1.0 | 2.0 | 0.00 | 0.00 | 0.00 | 98 | 1014.2 |
| 20260831051443 | 72 | 157 | 1.0 | 2.0 | 0.00 | 0.00 | 0.00 | 98 | 1014.5 |
| 20260831050937 | 73 | 159 | 2.0 | 2.0 | 0.00 | 0.00 | 0.00 | 98 | 1014.6 |
| 20260831050437 | 72 | 209 | 0.0 | 1.0 | 0.00 | 0.00 | 0.00 | 98 | 1014.5 |
| 20260831045935 | 72 | 143 | 3.0 | 5.0 | 0.00 | 0.24 | 0.24 | 98 | 1014.5 |
| 20260831045435 | 72 | 205 | 1.0 | 2.0 | 0.00 | 0.24 | 0.24 | 99 | 1014.4 |
| 20260831044930 | 72 | 166 | 0.0 | 1.0 | 0.00 | 0.24 | 0.24 | 99 | 1014.4 |
| 20260831044425 | 72 | 156 | 1.0 | 1.0 | 0.00 | 0.24 | 0.24 | 99 | 1014.3 |
| 20260831043921 | 72 | 151 | 0.0 | 1.0 | 0.00 | 0.24 | 0.24 | 99 | 1014.3 |
| 20260831043421 | 72 | 141 | 0.0 | 0.0 | 0.00 | 0.24 | 0.24 | 99 | 1014.5 |
| 20260831042917 | 72 | 113 | 1.0 | 2.0 | 0.00 | 0.24 | 0.24 | 99 | 1014.5 |
| 20260831042416 | 72 | 210 | 0.0 | 0.0 | 0.00 | 0.24 | 0.24 | 99 | 1014.8 |
| 20260831041911 | 72 | 152 | 2.0 | 2.0 | 0.00 | 0.24 | 0.24 | 99 | 1014.6 |
| 20260831041410 | 73 | 169 | 2.0 | 2.0 | 0.00 | 0.24 | 0.24 | 99 | 1014.8 |
| 20260831040905 | 73 | 51 | 1.0 | 2.0 | 0.00 | 0.24 | 0.24 | 99 | 1014.9 |
| 20260831040400 | 73 | 62 | 1.0 | 2.0 | 0.00 | 0.24 | 0.24 | 99 | 1015.1 |
| 20260831035858 | 73 | 346 | 0.0 | 1.0 | 0.00 | 0.24 | 0.24 | 99 | 1015.0 |
| 20260831035357 | 73 | 130 | 2.0 | 2.0 | 0.00 | 0.24 | 0.24 | 98 | 1014.5 |
| 20260831034851 | 73 | 124 | 1.0 | 1.0 | 0.00 | 0.24 | 0.24 | 98 | 1014.7 |
| 20260831034346 | 73 | 113 | 2.0 | 2.0 | 0.00 | 0.24 | 0.24 | 98 | 1014.5 |
| 20260831033836 | 73 | 170 | 1.0 | 1.0 | 0.00 | 0.24 | 0.24 | 98 | 1014.4 |
| 20260831033331 | 73 | 179 | 1.0 | 2.0 | 0.00 | 0.24 | 0.24 | 98 | 1014.3 |
| 20260831032826 | 73 | 187 | 0.0 | 1.0 | 0.00 | 0.24 | 0.24 | 98 | 1014.6 |
| 20260831032320 | 73 | 171 | 3.0 | 3.0 | 0.05 | 0.24 | 0.24 | 98 | 1015.0 |
| 20260831031815 | 73 | 177 | 1.0 | 2.0 | 0.05 | 0.24 | 0.24 | 98 | 1014.9 |
| 20260831031314 | 73 | 244 | 2.0 | 3.0 | 0.00 | 0.23 | 0.23 | 97 | 1014.7 |
| 20260831030810 | 73 | 172 | 4.0 | 5.0 | 0.00 | 0.23 | 0.23 | 97 | 1015.0 |
| 20260831030308 | 73 | 196 | 1.0 | 2.0 | 0.00 | 0.23 | 0.23 | 97 | 1015.3 |
| 20260831025807 | 73 | 214 | 2.0 | 2.0 | 0.00 | 0.23 | 0.23 | 97 | 1015.6 |
| 20260831025306 | 73 | 187 | 0.0 | 1.0 | 0.00 | 0.23 | 0.23 | 97 | 1015.3 |
| 20260831024758 | 73 | 227 | 1.0 | 1.0 | 0.00 | 0.23 | 0.23 | 97 | 1015.3 |
| 20260831024257 | 73 | 254 | 2.0 | 2.0 | 0.00 | 0.23 | 0.23 | 97 | 1015.6 |
| 20260831023756 | 73 | 196 | 1.0 | 1.0 | 0.00 | 0.23 | 0.23 | 97 | 1015.7 |
| 20260831023254 | 73 | 269 | 1.0 | 2.0 | 0.00 | 0.23 | 0.23 | 96 | 1015.4 |
| 20260831022750 | 73 | 197 | 2.0 | 3.0 | 0.00 | 0.23 | 0.23 | 96 | 1015.3 |
| 20260831022249 | 73 | 119 | 3.0 | 5.0 | 0.00 | 0.23 | 0.23 | 96 | 1015.3 |
| 20260831021744 | 73 | 276 | 2.0 | 2.0 | 0.00 | 0.23 | 0.23 | 96 | 1015.6 |
| 20260831021243 | 73 | 184 | 1.0 | 2.0 | 0.00 | 0.23 | 0.23 | 96 | 1015.5 |
| 20260831020740 | 73 | 218 | 0.0 | 1.0 | 0.00 | 0.23 | 0.23 | 97 | 1015.5 |
| 20260831020239 | 73 | 287 | 2.0 | 2.0 | 0.00 | 0.23 | 0.23 | 97 | 1015.6 |
| 20260831015735 | 73 | 233 | 0.0 | 0.0 | 0.00 | 0.23 | 0.23 | 97 | 1015.5 |
| 20260831015230 | 73 | 169 | 1.0 | 2.0 | 0.00 | 0.23 | 0.23 | 97 | 1015.5 |
| 20260831014725 | 73 | 178 | 3.0 | 3.0 | 0.00 | 0.23 | 0.23 | 97 | 1015.5 |
| 20260831014220 | 73 | 186 | 0.0 | 0.0 | 0.00 | 0.23 | 0.23 | 97 | 1015.3 |
| 20260831013717 | 73 | 203 | 3.0 | 3.0 | 0.00 | 0.23 | 0.23 | 97 | 1015.2 |
| 20260831013215 | 73 | 194 | 1.0 | 1.0 | 0.00 | 0.23 | 0.23 | 97 | 1015.4 |
| 20260831012711 | 73 | 190 | 1.0 | 1.0 | 0.00 | 0.23 | 0.23 | 97 | 1015.5 |
| 20260831012206 | 73 | 175 | 1.0 | 1.0 | 0.00 | 0.23 | 0.23 | 97 | 1015.5 |
| 20260831011705 | 73 | 206 | 1.0 | 1.0 | 0.00 | 0.23 | 0.23 | 97 | 1015.5 |
| 20260831011201 | 73 | 216 | 2.0 | 2.0 | 0.00 | 0.23 | 0.23 | 97 | 1015.3 |
| 20260831010657 | 73 | 225 | 0.0 | 1.0 | 0.00 | 0.23 | 0.23 | 97 | 1015.1 |
| 20260831010152 | 73 | 263 | 1.0 | 1.0 | 0.00 | 0.23 | 0.23 | 97 | 1015.1 |
| 20260831005651 | 72 | 208 | 0.0 | 1.0 | 0.00 | 0.23 | 0.23 | 97 | 1015.1 |
| 20260831005147 | 72 | 217 | 2.0 | 2.0 | 0.00 | 0.23 | 0.23 | 97 | 1015.2 |
| 20260831004643 | 72 | 221 | 3.0 | 3.0 | 0.00 | 0.23 | 0.23 | 97 | 1015.2 |
| 20260831004138 | 72 | 223 | 1.0 | 1.0 | 0.00 | 0.23 | 0.23 | 97 | 1015.0 |
| 20260831003634 | 72 | 106 | 1.0 | 1.0 | 0.00 | 0.23 | 0.23 | 97 | 1015.1 |
| 20260831003130 | 72 | 222 | 1.0 | 1.0 | 0.00 | 0.23 | 0.23 | 97 | 1015.0 |
| 20260831002628 | 72 | 220 | 1.0 | 2.0 | 0.00 | 0.23 | 0.23 | 97 | 1015.2 |
| 20260831002124 | 72 | 204 | 4.0 | 5.0 | 0.00 | 0.23 | 0.23 | 97 | 1015.2 |
| 20260831001619 | 72 | 186 | 1.0 | 1.0 | 0.00 | 0.23 | 0.23 | 98 | 1015.2 |
| 20260831001115 | 72 | 230 | 3.0 | 5.0 | 0.00 | 0.23 | 0.23 | 98 | 1015.0 |
| 20260831000612 | 72 | 147 | 3.0 | 5.0 | 0.00 | 0.23 | 0.23 | 98 | 1014.7 |
| 20260831000111 | 72 | 231 | 1.0 | 2.0 | 0.00 | 0.23 | 0.23 | 98 | 1014.8 |
| 20260830235610 | 72 | 218 | 4.0 | 6.0 | 0.00 | 0.23 | 0.23 | 98 | 1014.7 |
| 20260830235105 | 72 | 170 | 2.0 | 3.0 | 0.07 | 0.23 | 0.23 | 98 | 1014.5 |
| 20260830234600 | 72 | 173 | 3.0 | 5.0 | 0.07 | 0.23 | 0.23 | 97 | 1014.6 |
| 20260830234055 | 72 | 82 | 2.0 | 2.0 | 0.00 | 0.22 | 0.22 | 97 | 1014.5 |
| 20260830233550 | 73 | 197 | 0.0 | 1.0 | 0.05 | 0.22 | 0.22 | 97 | 1014.9 |
| 20260830233046 | 73 | 163 | 1.0 | 1.0 | 0.05 | 0.22 | 0.22 | 97 | 1015.2 |
| 20260830232542 | 73 | 203 | 0.0 | 1.0 | 0.00 | 0.21 | 0.21 | 96 | 1015.3 |
| 20260830232038 | 73 | 170 | 0.0 | 0.0 | 0.00 | 0.21 | 0.21 | 96 | 1015.3 |
| 20260830231534 | 73 | 210 | 1.0 | 2.0 | 0.00 | 0.21 | 0.21 | 96 | 1015.2 |
| 20260830231033 | 73 | 229 | 2.0 | 2.0 | 0.00 | 0.21 | 0.21 | 96 | 1015.2 |
| 20260830230528 | 73 | 195 | 0.0 | 1.0 | 0.00 | 0.21 | 0.21 | 96 | 1015.4 |
| 20260830230023 | 73 | 216 | 1.0 | 1.0 | 0.07 | 0.21 | 0.21 | 96 | 1015.3 |
| 20260830225518 | 73 | 203 | 3.0 | 3.0 | 0.07 | 0.21 | 0.21 | 95 | 1015.3 |
| 20260830225017 | 73 | 186 | 1.0 | 1.0 | 0.00 | 0.20 | 0.20 | 95 | 1015.5 |
| 20260830224516 | 73 | 227 | 0.0 | 1.0 | 0.00 | 0.20 | 0.20 | 95 | 1015.4 |
| 20260830224013 | 73 | 269 | 1.0 | 1.0 | 0.00 | 0.20 | 0.20 | 95 | 1015.6 |
| 20260830223510 | 73 | 177 | 0.0 | 1.0 | 0.05 | 0.20 | 0.20 | 94 | 1015.6 |
| 20260830223009 | 73 | 199 | 1.0 | 1.0 | 0.05 | 0.20 | 0.20 | 94 | 1015.8 |
| 20260830222504 | 73 | 203 | 2.0 | 3.0 | 0.00 | 0.19 | 0.19 | 93 | 1015.6 |
| 20260830222000 | 74 | 174 | 2.0 | 3.0 | 0.00 | 0.19 | 0.19 | 92 | 1015.6 |
| 20260830221455 | 74 | 198 | 0.0 | 1.0 | 0.07 | 0.19 | 0.19 | 91 | 1015.4 |
| 20260830220945 | 75 | 202 | 0.0 | 1.0 | 0.07 | 0.19 | 0.19 | 90 | 1015.5 |
| 20260830220445 | 75 | 110 | 1.0 | 2.0 | 0.00 | 0.18 | 0.18 | 89 | 1015.6 |
| 20260830215937 | 75 | 240 | 1.0 | 1.0 | 0.00 | 0.18 | 0.18 | 88 | 1015.7 |
| 20260830215432 | 75 | 194 | 1.0 | 1.0 | 0.00 | 0.18 | 0.18 | 88 | 1015.6 |
| 20260830214927 | 75 | 221 | 1.0 | 1.0 | 0.00 | 0.18 | 0.18 | 88 | 1015.5 |
| 20260830214423 | 75 | 218 | 3.0 | 5.0 | 0.00 | 0.18 | 0.18 | 87 | 1015.4 |
| 20260830213922 | 76 | 167 | 2.0 | 2.0 | 0.00 | 0.18 | 0.18 | 87 | 1015.2 |
| 20260830213418 | 76 | 141 | 3.0 | 3.0 | 0.00 | 0.18 | 0.18 | 86 | 1015.4 |
| 20260830212913 | 76 | 190 | 3.0 | 5.0 | 0.00 | 0.18 | 0.18 | 85 | 1015.4 |
| 20260830212409 | 76 | 248 | 0.0 | 1.0 | 0.00 | 0.18 | 0.18 | 85 | 1015.6 |
| 20260830211908 | 76 | 212 | 2.0 | 2.0 | 0.00 | 0.18 | 0.18 | 85 | 1015.5 |
| 20260830211402 | 76 | 153 | 2.0 | 3.0 | 0.00 | 0.18 | 0.18 | 84 | 1015.4 |
| 20260830210858 | 77 | 214 | 1.0 | 1.0 | 0.00 | 0.18 | 0.18 | 84 | 1015.7 |